Photometre #1041[NE_1.6] Brno_Airport AOT

File : 20220926_1041.hum

26/09/2022,09:02:29,TEMP=20.4,BA=5.32,STAT.D=6.0,ExtBa=13.20
26/09/2022,09:15:19,TEMP=20.2,BA=5.40,STAT.D=6.0,ExtBa=13.30
26/09/2022,09:30:19,TEMP=20.8,BA=5.40,STAT.D=6.0,ExtBa=13.60
26/09/2022,09:45:20,TEMP=22.6,BA=5.40,STAT.F,ExtBa=13.60
26/09/2022,10:00:19,TEMP=21.0,BA=5.40,STAT.D=6.0,ExtBa=13.70
26/09/2022,10:15:19,TEMP=21.1,BA=5.40,STAT.D=6.0,ExtBa=13.90
26/09/2022,10:30:19,TEMP=21.8,BA=5.40,STAT.D=6.0,ExtBa=14.00
26/09/2022,10:45:20,TEMP=20.5,BA=5.40,STAT.F,ExtBa=13.90
26/09/2022,11:00:19,TEMP=20.9,BA=5.36,STAT.D=6.0,ExtBa=13.40
26/09/2022,11:15:19,TEMP=20.0,BA=5.36,STAT.D=6.0,ExtBa=13.80
26/09/2022,11:30:19,TEMP=19.7,BA=5.36,STAT.D=6.0,ExtBa=13.90
26/09/2022,11:45:20,TEMP=19.2,BA=5.36,STAT.F,ExtBa=13.90
26/09/2022,12:00:19,TEMP=18.3,BA=5.36,STAT.D=6.0,ExtBa=13.80
26/09/2022,12:15:19,TEMP=18.8,BA=5.36,STAT.D=6.0,ExtBa=13.90
26/09/2022,12:30:18,TEMP=19.3,BA=5.40,STAT.D=6.0,ExtBa=13.80
26/09/2022,12:45:20,TEMP=19.4,BA=5.36,STAT.F,ExtBa=14.00
26/09/2022,13:00:18,TEMP=19.1,BA=5.40,STAT.D=6.0,ExtBa=13.80
26/09/2022,13:15:18,TEMP=19.4,BA=5.40,STAT.D=6.0,ExtBa=14.10
26/09/2022,13:30:18,TEMP=20.8,BA=5.40,STAT.D=6.0,ExtBa=13.90
26/09/2022,13:45:20,TEMP=21.4,BA=5.40,STAT.F,ExtBa=14.00
26/09/2022,14:01:38,TEMP=22.2,BA=5.40,STAT.A=6.0,ExtBa=14.00
26/09/2022,14:16:07,TEMP=20.4,BA=5.36,STAT.A=6.0,ExtBa=13.90
26/09/2022,14:27:59,TEMP=19.2,BA=5.36,STAT.A=6.0,ExtBa=13.80
26/09/2022,14:37:57,TEMP=18.8,BA=5.32,STAT.C=6.0,ExtBa=13.80
26/09/2022,14:54:05,TEMP=20.6,BA=5.28,STAT.A=6.0,ExtBa=13.10
26/09/2022,14:56:00,TEMP=20.7,BA=5.28,STAT.A=6.0,ExtBa=13.30
26/09/2022,15:00:13,TEMP=20.3,BA=5.28,STAT.A=6.0,ExtBa=13.30
26/09/2022,15:05:53,TEMP=20.2,BA=5.28,STAT.A=6.0,ExtBa=13.30
26/09/2022,15:10:57,TEMP=20.1,BA=5.32,STAT.B=6.0,ExtBa=13.20
26/09/2022,15:21:39,TEMP=20.6,BA=5.24,STAT.A=6.0,ExtBa=12.90
26/09/2022,15:29:45,TEMP=19.6,BA=5.24,STAT.A=6.0,ExtBa=13.20
26/09/2022,15:36:27,TEMP=18.8,BA=5.28,STAT.A=6.0,ExtBa=13.30
26/09/2022,15:42:00,TEMP=18.5,BA=5.32,STAT.A=6.0,ExtBa=13.30
26/09/2022,15:46:39,TEMP=18.2,BA=5.32,STAT.A=6.0,ExtBa=13.30
26/09/2022,15:51:22,TEMP=18.1,BA=5.28,STAT.A=6.0,ExtBa=13.20